Weather History for Cook, MN

Change the Weather History Date:

Sunday, September 22, 2013

  Actual Average Record
Temperature  
Mean Temperature 46 °F -  
Max Temperature 62 °F 60 °F 71 °F (2007)
Min Temperature 30 °F 39 °F 26 °F (1998)
Degree Days  
Heating Degree Days 19    
Moisture  
Dew Point 39 °F    
Average Humidity 78    
Maximum Humidity 100    
Minimum Humidity 48    
Precipitation  
Precipitation 0.00 in - - ()
Sea Level Pressure  
Sea Level Pressure 29.96 in    
Wind  
Wind Speed 4 mph (SE)    
Max Wind Speed 14 mph    
Max Gust Speed 21 mph    
Visibility 10 miles    
Events      
Averages and records for this station are not official NWS values.
T = Trace of Precipitation, MM = Missing Value Source: NWS Daily Summary

Daily Weather History Graph

Daily Weather History Graph

Search for Another Location

Airport:

Trip Planner

Search our weather history database for the weather conditions in past years. The results will help you decide how hot, cold, wet, or windy it might be!

Date:

Astronomy

Sep. 22, 2013 Rise Set
Actual Time 6:57 AM CDT 7:07 PM CDT
Civil Twilight 6:26 AM CDT 7:38 PM CDT
Nautical Twilight 5:50 AM CDT 8:15 PM CDT
Astronomical Twilight 5:13 AM CDT 8:52 PM CDT
Moon 8:39 PM CDT (9/22) 10:35 AM CDT (9/22)
Length of Visible Light 13h 11m
Length of Day
12h 10m
Waning Gibbous, 88% of the Moon is Illuminated
Sep 22
Waning Gibbous
Sep 26
Last Quarter
Oct 4
New
Oct 11
First Quarter
Oct 18
Full

Hourly Weather History & Observations

Time (CDT) Temp. Windchill Dew Point Humidity Pressure Visibility Wind Dir Wind Speed Gust Speed Precip Events Conditions
12:17 AM 33.8 °F - 33.8 °F 100% 29.99 in 10.0 mi Calm Calm - N/A   Clear
12:37 AM 33.8 °F - 32.0 °F 93% 29.99 in 10.0 mi Calm Calm - N/A   Clear
12:56 AM 32.0 °F - 32.0 °F 100% 29.99 in 10.0 mi Calm Calm - N/A   Clear
1:17 AM 32.0 °F - 32.0 °F 100% 29.99 in 10.0 mi Calm Calm - N/A   Clear
1:36 AM 33.8 °F - 33.8 °F 100% 29.99 in 10.0 mi Calm Calm - N/A   Clear
1:56 AM 32.0 °F - 32.0 °F 100% 29.99 in 10.0 mi Calm Calm - N/A   Clear
2:16 AM 33.8 °F - 32.0 °F 93% 29.99 in 10.0 mi Calm Calm - N/A   Clear
2:36 AM 32.0 °F - 32.0 °F 100% 29.99 in 10.0 mi Calm Calm - N/A   Clear
2:57 AM 32.0 °F - 30.2 °F 93% 29.99 in 10.0 mi Calm Calm - N/A   Clear
3:16 AM 30.2 °F - 30.2 °F 100% 29.99 in 10.0 mi Calm Calm - N/A   Clear
3:37 AM 30.2 °F - 30.2 °F 100% 30.00 in 10.0 mi Calm Calm - N/A   Clear
3:56 AM 30.2 °F - 30.2 °F 100% 30.00 in 10.0 mi Calm Calm - N/A   Clear
4:17 AM 30.2 °F - 30.2 °F 100% 30.00 in 10.0 mi Calm Calm - N/A   Clear
4:36 AM 32.0 °F - 30.2 °F 93% 30.00 in 10.0 mi Calm Calm - N/A   Clear
4:56 AM 32.0 °F 28.7 °F 32.0 °F 100% 30.00 in 10.0 mi East 3.5 mph - N/A   Clear
5:17 AM 32.0 °F - 30.2 °F 93% 30.00 in 10.0 mi Calm Calm - N/A   Clear
5:36 AM 32.0 °F - 32.0 °F 100% 30.00 in 10.0 mi Calm Calm - N/A   Clear
5:56 AM 32.0 °F - 32.0 °F 100% 29.99 in 10.0 mi Calm Calm - N/A   Clear
6:16 AM 32.0 °F 28.7 °F 30.2 °F 93% 30.00 in 10.0 mi East 3.5 mph - N/A   Clear
6:36 AM 32.0 °F 28.7 °F 30.2 °F 93% 30.00 in 10.0 mi ENE 3.5 mph - N/A   Clear
6:56 AM 33.8 °F 30.8 °F 32.0 °F 93% 30.00 in 10.0 mi East 3.5 mph - N/A   Clear
7:16 AM 32.0 °F 28.7 °F 32.0 °F 100% 30.00 in 10.0 mi East 3.5 mph - N/A   Clear
7:37 AM 33.8 °F 30.8 °F 32.0 °F 93% 30.00 in 10.0 mi East 3.5 mph - N/A   Clear
7:56 AM 35.6 °F - 35.6 °F 100% 30.01 in 10.0 mi Calm Calm - N/A   Clear
8:17 AM 39.2 °F - 37.4 °F 93% 30.01 in 10.0 mi North - - N/A   Clear
8:37 AM 42.8 °F 38.6 °F 39.2 °F 87% 30.01 in 10.0 mi SE 6.9 mph - N/A   Clear
8:56 AM 44.6 °F 43.1 °F 41.0 °F 87% 30.01 in 10.0 mi SE 3.5 mph - N/A   Clear
9:17 AM 46.4 °F 43.5 °F 41.0 °F 81% 30.01 in 10.0 mi SSE 5.8 mph - N/A   Clear
9:37 AM 48.2 °F - 41.0 °F 76% 30.01 in 10.0 mi SE 9.2 mph 16.1 mph N/A   Clear
9:56 AM 50.0 °F - 42.8 °F 76% 30.01 in 10.0 mi SE 9.2 mph - N/A   Clear
10:17 AM 51.8 °F - 41.0 °F 67% 30.00 in 10.0 mi SE 11.5 mph 19.6 mph N/A   Clear
10:37 AM 51.8 °F - 41.0 °F 67% 30.00 in 10.0 mi SSE 10.4 mph 17.3 mph N/A   Clear
10:56 AM 53.6 °F - 42.8 °F 67% 29.99 in 10.0 mi SE 9.2 mph - N/A   Clear
11:16 AM 53.6 °F - 42.8 °F 67% 29.99 in 10.0 mi SE 12.7 mph 18.4 mph N/A   Clear
11:36 AM 55.4 °F - 42.8 °F 63% 29.99 in 10.0 mi SSE 10.4 mph 17.3 mph N/A   Clear
11:56 AM 55.4 °F - 42.8 °F 63% 29.98 in 10.0 mi SSE 11.5 mph 16.1 mph N/A   Clear
12:16 PM 57.2 °F - 42.8 °F 59% 29.98 in 10.0 mi SE 10.4 mph - N/A   Clear
12:37 PM 57.2 °F - 42.8 °F 59% 29.97 in 10.0 mi SE 10.4 mph 16.1 mph N/A   Clear
12:56 PM 57.2 °F - 44.6 °F 63% 29.96 in 10.0 mi SE 9.2 mph 16.1 mph N/A   Clear
1:16 PM 59.0 °F - 44.6 °F 59% 29.95 in 10.0 mi ESE 11.5 mph 18.4 mph N/A   Clear
1:37 PM 59.0 °F - 42.8 °F 55% 29.95 in 10.0 mi SSE 13.8 mph 17.3 mph N/A   Clear
1:56 PM 60.8 °F - 42.8 °F 52% 29.94 in 10.0 mi SSE 11.5 mph 20.7 mph N/A   Clear
2:16 PM 60.8 °F - 42.8 °F 52% 29.94 in 10.0 mi SE 11.5 mph 18.4 mph N/A   Clear
2:37 PM 60.8 °F - 42.8 °F 52% 29.93 in 10.0 mi SE 12.7 mph 17.3 mph N/A   Clear
2:56 PM 60.8 °F - 42.8 °F 52% 29.93 in 10.0 mi SE 11.5 mph 20.7 mph N/A   Clear
3:16 PM 60.8 °F - 42.8 °F 52% 29.92 in 10.0 mi SE 13.8 mph 19.6 mph N/A   Clear
3:36 PM 60.8 °F - 42.8 °F 52% 29.92 in 10.0 mi SE 10.4 mph 17.3 mph N/A   Clear
3:56 PM 62.6 °F - 42.8 °F 48% 29.91 in 10.0 mi SE 11.5 mph 17.3 mph N/A   Clear
4:17 PM 60.8 °F - 42.8 °F 52% 29.91 in 10.0 mi SE 6.9 mph 17.3 mph N/A   Clear
4:36 PM 60.8 °F - 42.8 °F 52% 29.91 in 10.0 mi SE 12.7 mph - N/A   Clear
4:56 PM 60.8 °F - 42.8 °F 52% 29.91 in 10.0 mi SSE 11.5 mph 18.4 mph N/A   Clear
5:17 PM 60.8 °F - 42.8 °F 52% 29.90 in 10.0 mi SE 13.8 mph 20.7 mph N/A   Clear
5:36 PM 60.8 °F - 42.8 °F 52% 29.90 in 10.0 mi SE 10.4 mph 17.3 mph N/A   Clear
5:56 PM 59.0 °F - 42.8 °F 55% 29.90 in 10.0 mi ESE 5.8 mph 17.3 mph N/A   Clear
6:17 PM 57.2 °F - 44.6 °F 63% 29.90 in 10.0 mi ESE 6.9 mph - N/A   Clear
6:36 PM 55.4 °F - 42.8 °F 63% 29.89 in 10.0 mi SE 13.8 mph 17.3 mph N/A   Clear
6:56 PM 55.4 °F - 42.8 °F 63% 29.90 in 10.0 mi SE 9.2 mph 17.3 mph N/A   Clear
7:17 PM 53.6 °F - 42.8 °F 67% 29.90 in 10.0 mi SE 10.4 mph - N/A   Clear
7:36 PM 53.6 °F - 42.8 °F 67% 29.90 in 10.0 mi SE 8.1 mph - N/A   Clear
7:56 PM 51.8 °F - 42.8 °F 71% 29.90 in 10.0 mi SE 10.4 mph - N/A   Clear
8:17 PM 51.8 °F - 42.8 °F 71% 29.90 in 10.0 mi SE 10.4 mph 17.3 mph N/A   Clear
8:36 PM 50.0 °F - 42.8 °F 76% 29.91 in 10.0 mi SE 6.9 mph 16.1 mph N/A   Clear
8:56 PM 48.2 °F - 42.8 °F 82% 29.91 in 10.0 mi SE 9.2 mph 16.1 mph N/A   Clear
9:17 PM 48.2 °F - 42.8 °F 82% 29.92 in 10.0 mi SE 8.1 mph 16.1 mph N/A   Clear
9:36 PM 46.4 °F 41.9 °F 42.8 °F 87% 29.92 in 10.0 mi ESE 9.2 mph - N/A   Clear
9:56 PM 46.4 °F 41.9 °F 42.8 °F 87% 29.92 in 10.0 mi SE 9.2 mph - N/A   Clear
10:17 PM 46.4 °F 42.4 °F 42.8 °F 87% 29.91 in 10.0 mi SE 8.1 mph - N/A   Clear
10:36 PM 46.4 °F 42.4 °F 42.8 °F 87% 29.91 in 10.0 mi SE 8.1 mph - N/A   Clear
10:56 PM 46.4 °F 43.5 °F 42.8 °F 87% 29.91 in 10.0 mi SE 5.8 mph 17.3 mph N/A   Clear
11:17 PM 46.4 °F 42.9 °F 42.8 °F 87% 29.90 in 10.0 mi ESE 6.9 mph - N/A   Clear
11:36 PM 46.4 °F 42.9 °F 44.6 °F 93% 29.91 in 10.0 mi SE 6.9 mph - N/A   Clear
11:57 PM 48.2 °F - 44.6 °F 87% 29.90 in 10.0 mi SE 5.8 mph - N/A   Clear